Location: Unspecified
(0.0000°N, 0.0000°E)
Time: 22:22:29
(UTC+00:00)

Amsat-Oscar-6 - Pass Details

Date: 27 April 2019
Orbit: 1448 x 1455 km, 101.8° (Epoch: 17 May)

Event Time Altitude Azimuth Distance (km) Brightness Sun altitude
Rises 04:17:11 0° 353° (N) 4,532 ? -24.4°
Reaches altitude 10° 04:20:25 10° 343° (NNW) 3,557 ? -23.6°
Maximum altitude 04:27:13 29° 287° (WNW) 2,404 ? -22.0°
Enters shadow 04:27:33 29° 283° (WNW) 2,408 ? -21.9°
